When you browse on this site, cookies collect data to enhance your experience and personalize the content and advertising you see.
Visit our Privacy Policy to learn more. By continuing to use the site, you agree to this use of cookies and data.
  • In Hungary
  • List of Countries
  • For 7 days
  • Water Temperature
  • Satellite Maps
  • Weather Map
  • News
  • Weather Widgets
  • user-avatar
    Login

    Hourly Weather Gurhun

    Today, 21 November, Wednesday

    Time Temperature Precipitation Wind Pressure Humidity
    00:00 +8°C° 0 mm 3 mps 698 mmHg 72%
    01:00 +8°C° 0 mm 3 mps 698 mmHg 73%
    02:00 +7°C° 0 mm 3 mps 698 mmHg 75%
    03:00 +7°C° 0 mm 3 mps 698 mmHg 76%
    04:00 +7°C° 0.1 mm 3 mps 698 mmHg 78%
    05:00 +5°C° 0.1 mm 3 mps 698 mmHg 80%
    06:00 +5°C° 0.1 mm 3 mps 699 mmHg 82%
    07:00 +7°C° 0.1 mm 3 mps 699 mmHg 81%
    08:00 +7°C° 0.1 mm 3 mps 699 mmHg 79%
    09:00 +8°C° 0.1 mm 3 mps 699 mmHg 78%
    10:00 +8°C° 0.1 mm 3 mps 699 mmHg 79%
    11:00 +7°C° 0.1 mm 4 mps 699 mmHg 80%
    12:00 +7°C° 0.1 mm 4 mps 699 mmHg 81%
    13:00 +6°C° 0.2 mm 4 mps 699 mmHg 83%
    14:00 +7°C° 0.2 mm 3 mps 699 mmHg 85%
    15:00 +7°C° 0.2 mm 3 mps 699 mmHg 87%
    16:00 +5°C° 0 mm 3 mps 699 mmHg 89%
    17:00 +5°C° 0 mm 3 mps 700 mmHg 91%
    18:00 +4°C° 0 mm 3 mps 700 mmHg 93%
    19:00 +5°C° 0 mm 2 mps 700 mmHg 93%
    20:00 +5°C° 0 mm 2 mps 700 mmHg 92%
    21:00 +5°C° 0 mm 2 mps 700 mmHg 92%
    22:00 +5°C° 0 mm 2 mps 700 mmHg 92%
    23:00 +5°C° 0 mm 2 mps 700 mmHg 91%

    Tomorrow, 22 November, Thursday

    Time Temperature Precipitation Wind Pressure Humidity
    00:00 +5°C° 0 mm 2 mps 699 mmHg 91%
    01:00 +5°C° 0 mm 2 mps 699 mmHg 91%
    02:00 +6°C° 0 mm 1 mps 699 mmHg 91%
    03:00 +6°C° 0 mm 1 mps 699 mmHg 91%
    04:00 +5°C° 0 mm 1 mps 699 mmHg 91%
    05:00 +5°C° 0 mm 1 mps 699 mmHg 91%
    06:00 +5°C° 0 mm 1 mps 699 mmHg 91%
    07:00 +6°C° 0 mm 1 mps 699 mmHg 89%
    08:00 +5°C° 0 mm 2 mps 699 mmHg 87%
    09:00 +6°C° 0 mm 2 mps 699 mmHg 85%
    10:00 +6°C° 0 mm 2 mps 699 mmHg 85%
    11:00 +6°C° 0 mm 2 mps 699 mmHg 84%
    12:00 +7°C° 0 mm 2 mps 699 mmHg 83%
    13:00 +7°C° 0 mm 2 mps 698 mmHg 84%
    14:00 +6°C° 0 mm 2 mps 698 mmHg 86%
    15:00 +6°C° 0 mm 2 mps 698 mmHg 87%
    16:00 +6°C° 0 mm 2 mps 698 mmHg 88%
    17:00 +5°C° 0 mm 2 mps 698 mmHg 90%
    18:00 +6°C° 0 mm 1 mps 699 mmHg 91%
    19:00 +6°C° 0 mm 1 mps 699 mmHg 90%
    20:00 +6°C° 0 mm 1 mps 699 mmHg 89%
    21:00 +6°C° 0 mm 1 mps 699 mmHg 88%
    22:00 +6°C° 0 mm 1 mps 699 mmHg 88%
    23:00 +6°C° 0 mm 1 mps 699 mmHg 87%

    Day after tomorrow, 23 November, Friday

    Time Temperature Precipitation Wind Pressure Humidity
    00:00 +6°C° 0 mm 1 mps 699 mmHg 86%
    01:00 +6°C° 0 mm 1 mps 699 mmHg 85%
    02:00 +5°C° 0 mm 1 mps 698 mmHg 85%
    03:00 +5°C° 0 mm 1 mps 698 mmHg 85%
    04:00 +5°C° 0 mm 1 mps 698 mmHg 84%
    05:00 +5°C° 0 mm 1 mps 698 mmHg 84%
    06:00 +5°C° 0 mm 1 mps 698 mmHg 83%
    07:00 +6°C° 0 mm 1 mps 699 mmHg 81%
    08:00 +7°C° 0 mm 1 mps 699 mmHg 78%
    09:00 +8°C° 0 mm 1 mps 700 mmHg 75%
    10:00 +7°C° 0 mm 2 mps 700 mmHg 74%
    11:00 +8°C° 0 mm 2 mps 700 mmHg 74%
    12:00 +8°C° 0 mm 2 mps 699 mmHg 74%
    13:00 +8°C° 0.1 mm 2 mps 700 mmHg 77%
    14:00 +7°C° 0.1 mm 2 mps 700 mmHg 80%
    15:00 +7°C° 0.1 mm 2 mps 700 mmHg 83%
    16:00 +6°C° 0.1 mm 2 mps 700 mmHg 85%
    17:00 +5°C° 0.1 mm 2 mps 701 mmHg 88%
    18:00 +5°C° 0.1 mm 2 mps 702 mmHg 91%
    19:00 +3°C° 0.3 mm 3 mps 702 mmHg 90%
    20:00 +3°C° 0.3 mm 3 mps 703 mmHg 90%
    21:00 +3°C° 0.3 mm 4 mps 704 mmHg 89%
    22:00 +3°C° 0.1 mm 4 mps 704 mmHg 88%
    23:00 +1°C° 0.1 mm 4 mps 705 mmHg 88%

    24 November, Saturday

    Time Temperature Precipitation Wind Pressure Humidity
    00:00 +1°C° 0.1 mm 4 mps 706 mmHg 87%
    01:00 0°C° 0 mm 4 mps 706 mmHg 87%
    02:00 0°C° 0 mm 4 mps 706 mmHg 87%
    03:00 0°C° 0 mm 3 mps 707 mmHg 87%
    04:00 0°C° 0 mm 3 mps 707 mmHg 86%
    05:00 +1°C° 0 mm 2 mps 708 mmHg 86%
    06:00 +1°C° 0 mm 2 mps 708 mmHg 85%
    07:00 +2°C° 0 mm 2 mps 709 mmHg 82%
    08:00 +2°C° 0 mm 2 mps 709 mmHg 78%
    09:00 +3°C° 0 mm 2 mps 710 mmHg 74%
    10:00 +4°C° 0 mm 2 mps 710 mmHg 73%
    11:00 +5°C° 0 mm 2 mps 710 mmHg 72%
    12:00 +5°C° 0 mm 2 mps 710 mmHg 71%
    13:00 +5°C° 0 mm 2 mps 710 mmHg 73%
    14:00 +4°C° 0 mm 3 mps 710 mmHg 74%
    15:00 +4°C° 0 mm 3 mps 710 mmHg 76%
    16:00 +3°C° 0 mm 3 mps 710 mmHg 78%
    17:00 +1°C° 0 mm 4 mps 710 mmHg 80%
    18:00 +1°C° 0 mm 4 mps 710 mmHg 81%
    19:00 +1°C° 0 mm 4 mps 709 mmHg 79%
    20:00 +1°C° 0 mm 4 mps 709 mmHg 78%
    21:00 +1°C° 0 mm 5 mps 709 mmHg 76%
    22:00 +1°C° 0 mm 5 mps 709 mmHg 75%
    23:00 +1°C° 0 mm 5 mps 708 mmHg 74%

    25 November, Sunday

    Time Temperature Precipitation Wind Pressure Humidity
    00:00 +1°C° 0 mm 4 mps 708 mmHg 74%
    01:00 +1°C° 0 mm 4 mps 707 mmHg 72%
    02:00 +3°C° 0 mm 4 mps 706 mmHg 71%
    03:00 +3°C° 0 mm 4 mps 706 mmHg 70%
    04:00 +3°C° 0 mm 4 mps 705 mmHg 68%
    05:00 +3°C° 0 mm 3 mps 705 mmHg 67%
    06:00 +3°C° 0 mm 3 mps 704 mmHg 65%
    07:00 +4°C° 0 mm 3 mps 704 mmHg 62%
    08:00 +7°C° 0 mm 2 mps 704 mmHg 58%
    09:00 +8°C° 0 mm 2 mps 704 mmHg 55%
    10:00 +9°C° 0 mm 2 mps 703 mmHg 53%
    11:00 +10°C° 0 mm 2 mps 702 mmHg 52%
    12:00 +10°C° 0 mm 2 mps 702 mmHg 50%
    13:00 +10°C° 0 mm 2 mps 701 mmHg 54%
    14:00 +10°C° 0 mm 2 mps 701 mmHg 58%
    15:00 +9°C° 0 mm 2 mps 700 mmHg 62%
    16:00 +8°C° 0 mm 2 mps 700 mmHg 64%
    17:00 +7°C° 0 mm 2 mps 700 mmHg 66%
    18:00 +6°C° 0 mm 2 mps 700 mmHg 68%
    19:00 +6°C° 0 mm 2 mps 700 mmHg 66%
    20:00 +6°C° 0 mm 2 mps 700 mmHg 64%
    21:00 +6°C° 0 mm 2 mps 700 mmHg 62%
    22:00 +6°C° 0 mm 2 mps 700 mmHg 62%
    23:00 +6°C° 0 mm 2 mps 699 mmHg 61%

    26 November, Monday

    Time Temperature Precipitation Wind Pressure Humidity
    00:00 +5°C° 0 mm 3 mps 699 mmHg 60%
    01:00 +4°C° 0 mm 3 mps 699 mmHg 60%
    02:00 +4°C° 0 mm 3 mps 699 mmHg 60%
    03:00 +4°C° 0 mm 3 mps 699 mmHg 59%
    04:00 +5°C° 0 mm 2 mps 699 mmHg 59%
    05:00 +5°C° 0 mm 2 mps 699 mmHg 59%
    06:00 +5°C° 0 mm 2 mps 699 mmHg 58%
    07:00 +6°C° 0 mm 2 mps 699 mmHg 56%
    08:00 +7°C° 0 mm 2 mps 700 mmHg 53%
    09:00 +8°C° 0 mm 2 mps 700 mmHg 50%
    10:00 +8°C° 0 mm 2 mps 700 mmHg 51%
    11:00 +9°C° 0 mm 2 mps 700 mmHg 52%
    12:00 +9°C° 0 mm 2 mps 700 mmHg 53%
    13:00 +9°C° 0 mm 2 mps 700 mmHg 58%
    14:00 +9°C° 0 mm 2 mps 700 mmHg 62%
    15:00 +9°C° 0 mm 1 mps 699 mmHg 67%
    16:00 +8°C° 0 mm 1 mps 700 mmHg 70%
    17:00 +7°C° 0 mm 1 mps 700 mmHg 73%
    18:00 +6°C° 0 mm 1 mps 700 mmHg 76%
    19:00 +6°C° 0 mm 1 mps 700 mmHg 74%
    20:00 +6°C° 0 mm 1 mps 700 mmHg 73%
    21:00 +6°C° 0 mm 1 mps 700 mmHg 71%
    22:00 +6°C° 0 mm 1 mps 700 mmHg 68%
    23:00 +6°C° 0 mm 1 mps 700 mmHg 66%
    Show more